Regional Weather Roundup
Issued by NWS State College, PA

Home | Current Version | Previous Version | Graphics & Text | Print | Product List | Glossary Off
Versions: 1 2 3 4 5 6 7 8 9 10 11 12 13 14 15 16 17 18 19 20 21 22 23 24 25 26 27 28 29 30 31 32 33 34 35 36 37 38 39 40 41 42 43 44 45 46 47 48 49 50

000
ASUS41 KCTP 250403
RWRCTP

REGIONAL WEATHER ROUNDUP
NATIONAL WEATHER SERVICE STATE COLLEGE PA
1200 AM EDT FRI JUL 25 2014

Note: "fair" indicates few or no clouds below 12,000 feet with no
significant weather and/or obstructions to visibility.

* = STATION THAT DOES NOT REPORT PRECIPITATION /E.G. RAIN...SNOW...ETC/
    THUNDER OR FOG.

PAZ002>004-007>009-013>016-020>023-029>032-250500-
WESTERN PENNSYLVANIA

CITY           SKY/WX    TMP DP  RH WIND       PRES   REMARKS
ERIE           CLEAR     57  51  80 S6        30.07R
MEADVILLE      CLEAR     57  48  72 CALM      30.09S
FRANKLIN*      CLEAR     55  43  62 CALM      30.10R
NEW CASTLE       N/A     56  50  80 CALM      30.09S
BEAVER COUNTY  NOT AVBL
BUTLER*        CLEAR     57  46  67 CALM      30.09S
PITTSBURGH INT CLEAR     62  50  64 N6        30.07R
PITTSBURGH     CLEAR     61  50  67 NW7       30.07R
INDIANA*       CLEAR     59  54  82 CALM      30.11R
LATROBE        CLEAR     61  55  82 NE3       30.08R
WASHINGTON CO* CLEAR     61  50  67 N6        30.08S
$$

PAZ004>006-010>012-017>019-024>028-033>037-041-042-045-046-049>053-250500-
CENTRAL PENNSYLVANIA

CITY           SKY/WX    TMP DP  RH WIND       PRES   REMARKS
BRADFORD       CLEAR     50  47  89 CALM      30.08R
DUBOIS         CLEAR     58  50  75 N6        30.07R
CLEARFIELD     CLEAR     56  51  84 NW5       30.06R
JOHNSTOWN      CLEAR     58  49  72 N8        30.07R
ALTOONA        CLEAR     57  55  93 CALM      30.05R
STATE COLLEGE  PTCLDY    62  53  72 NE3       30.04R
WILLIAMSPORT   CLEAR     59  52  77 CALM      30.01R
SELINSGROVE    CLEAR     59  52  77 NW6       30.01R
FT INDIANTOWN  CLEAR     62  53  71 N6        29.99R
CAPITAL CITY   CLEAR     61  55  81 CALM      29.98R
HARRISBURG     PTCLDY    67  53  61 N3        29.97R
YORK           CLEAR     57  55  93 CALM      29.97R
$$

PAZ038>040-043-044-047-048-054-055-060>062-067>071-250500-
EASTERN PENNSYLVANIA

CITY           SKY/WX    TMP DP  RH WIND       PRES   REMARKS
SCRANTON       CLEAR     57  49  74 CALM      30.00R
MOUNT POCONO   PTCLDY    56  32  40 N8        30.00R
ALLENTOWN      PTCLDY    62  52  69 CALM      29.96R
QUAKERTOWN*    PTCLDY    64  54  68 N5        29.96S
READING        PTCLDY    65  52  62 NW3       29.96R
LANCASTER      CLEAR     62  53  72 N6        29.97R
COATESVILLE    PTCLDY    64  54  68 N5        29.97R
POTTSTOWN      PTCLDY    65  52  62 N5        29.97R
BLUE BELL      PTCLDY    68  54  60 CALM      29.93S
DOYLESTOWN     PTCLDY    65  53  65 N6        29.94R
WILLOW GROVE   NOT AVBL
NORTH PHILA    PTCLDY    71  51  49 N13       29.94R
PHILADELPHIA   PTCLDY    72  52  49 N9        29.93R
$$



USA.gov is the U.S. government's official web portal to all federal, state and local government web resources and services.